Evansville, IN

10:27 PM CDT on May 24, 2018 (GMT -0500)
Evansville Regional

Weather History for KEVV - November, 2013

Change the Weather History Date:

Saturday, November 2, 2013

  Actual Average Record
Temperature  
Mean Temperature 46 °F 52 °F  
Max Temperature 56 °F 63 °F 83 °F (1961)
Min Temperature 36 °F 41 °F 18 °F (1951)
Degree Days  
Heating Degree Days 19 13  
Month to date heating degree days 28 26  
Since 1 July heating degree days 287 329  
Cooling Degree Days 0 0  
Month to date cooling degree days 0 0  
Year to date cooling degree days 1464 1395  
Moisture  
Dew Point 41 °F    
Average Humidity 79    
Maximum Humidity 92    
Minimum Humidity 66    
Precipitation  
Precipitation 0.02 in 0.13 in 1.77 in (1955)
Month to date precipitation 0.02 0.26  
Year to date precipitation 44.23 37.48  
Snow  
Snow T in 0.00 in 2.40 in (1966)
Month to date snowfall T 0.0  
Since 1 July snowfall T 0.2  
Since 1 September snowfall T 0.2  
Snow Depth 0.00 in    
Sea Level Pressure  
Sea Level Pressure 30.00 in    
Wind  
Wind Speed 6 mph (WNW)    
Max Wind Speed 21 mph    
Max Gust Speed 26 mph    
Visibility 9 miles    
Events Rain    
T = Trace of Precipitation, MM = Missing Value Source: NWS Daily Summary

Daily Weather History Graph

Daily Weather History Graph

Search for Another Location

Airport or City:

Astronomy

Nov. 02, 2013 Rise Set
Actual Time 7:17 AM CDT 5:49 PM CDT
Civil Twilight 6:49 AM CDT 6:16 PM CDT
Nautical Twilight 6:18 AM CDT 6:48 PM CDT
Astronomical Twilight 5:47 AM CDT 7:18 PM CDT
Moon 6:14 AM CDT (11/2) 5:20 PM CDT (11/2)
Length of Visible Light 11h 27m
Length of Day
10h 32m
Waning Crescent, 1% of the Moon is Illuminated
Nov 2
Waning Crescent
Nov 3
New
Nov 9
First Quarter
Nov 17
Full
Nov 25
Last Quarter

Hourly Weather History & Observations

Time (CDT) Temp. Windchill Dew Point Humidity Pressure Visibility Wind Dir Wind Speed Gust Speed Precip Events Conditions
12:54 AM 45.0 °F - 42.1 °F 90% 29.84 in 10.0 mi Calm Calm - N/A   Clear
1:54 AM 43.0 °F - 39.9 °F 89% 29.84 in 10.0 mi Calm Calm - N/A   Clear
2:54 AM 43.0 °F - 39.9 °F 89% 29.84 in 10.0 mi Calm Calm - N/A   Clear
3:54 AM 43.0 °F - 39.9 °F 89% 29.86 in 10.0 mi Calm Calm - N/A   Clear
4:54 AM 42.1 °F 39.2 °F 39.0 °F 89% 29.87 in 10.0 mi SW 4.6 mph - N/A   Clear
5:54 AM 44.1 °F - 39.9 °F 85% 29.88 in 10.0 mi Calm Calm - N/A   Mostly Cloudy
6:54 AM 43.0 °F - 39.0 °F 86% 29.89 in 10.0 mi Calm Calm - N/A   Clear
7:54 AM 45.0 °F - 41.0 °F 86% 29.91 in 10.0 mi Calm Calm - N/A   Clear
8:54 AM 46.9 °F - 42.1 °F 83% 29.94 in 10.0 mi West 8.1 mph - N/A   Overcast
9:54 AM 48.0 °F - 42.1 °F 80% 29.97 in 10.0 mi West 15.0 mph 20.7 mph N/A   Overcast
10:54 AM 48.0 °F - 42.1 °F 80% 29.99 in 4.0 mi NW 11.5 mph 18.4 mph 0.00 in Rain Rain
11:54 AM 55.0 °F - 45.0 °F 69% 29.99 in 10.0 mi NNW 11.5 mph - 0.02 in   Partly Cloudy
12:54 PM 54.0 °F - 44.1 °F 69% 30.00 in 10.0 mi WNW 9.2 mph - N/A   Overcast
1:04 PM 53.6 °F - 44.6 °F 72% 30.00 in 10.0 mi NW 12.7 mph - N/A   Overcast
1:30 PM 55.4 °F - 44.6 °F 67% 30.00 in 10.0 mi WNW 11.5 mph - N/A   Mostly Cloudy
1:54 PM 54.0 °F - 43.0 °F 66% 30.01 in 10.0 mi West 13.8 mph - N/A   Overcast
2:22 PM 55.4 °F - 44.6 °F 67% 30.00 in 10.0 mi WNW 9.2 mph - N/A   Mostly Cloudy
2:54 PM 54.0 °F - 43.0 °F 66% 30.01 in 10.0 mi NW 8.1 mph - N/A   Mostly Cloudy
3:54 PM 50.0 °F - 42.1 °F 74% 30.04 in 9.0 mi WNW 15.0 mph 26.5 mph 0.00 in Rain Light Rain
4:54 PM 53.1 °F - 41.0 °F 64% 30.05 in 10.0 mi WNW 16.1 mph 20.7 mph 0.00 in   Mostly Cloudy
5:54 PM 50.0 °F - 39.9 °F 68% 30.09 in 10.0 mi NW 9.2 mph - N/A   Mostly Cloudy
6:54 PM 46.9 °F - 37.0 °F 68% 30.12 in 10.0 mi NW 6.9 mph - N/A   Clear
7:54 PM 45.0 °F 43.5 °F 37.0 °F 74% 30.15 in 10.0 mi WNW 3.5 mph - N/A   Clear
8:54 PM 44.1 °F - 37.0 °F 76% 30.16 in 10.0 mi Calm Calm - N/A   Clear
9:54 PM 39.0 °F - 36.0 °F 89% 30.18 in 8.0 mi Calm Calm - N/A   Clear
10:54 PM 39.0 °F - 36.0 °F 89% 30.20 in 6.0 mi Calm Calm - N/A   Clear
11:54 PM 37.0 °F - 35.1 °F 93% 30.19 in 5.0 mi Calm Calm - N/A   Clear